weather.gov     
National Weather Service

Regional Weather Roundup
NWS Homepage
This page is being discontinued on March 12, 2014.
The same data is available at this site. Please update your bookmarks.
Thank you, and we apologize for the inconvenience.
Please send an email to SR-SRH.Webmaster@noaa.gov with any concerns.


Current Version
Previous Version:    01  02  03  04  05  06  07  08  09  10  11  12  13  14  15  16  17  18  19  20  21  22  23  24  25  26  
[Printable]
622
ASUS41 KAKQ 230410
RWRAKQ

REGIONAL WEATHER ROUNDUP
NATIONAL WEATHER SERVICE WAKEFIELD VA
1200 AM EDT THU OCT 23 2014

Note: "fair" indicates few or no clouds below 12,000 feet with no
significant weather and/or obstructions to visibility. * = Denotes
station may not report precipitation (e.g., rain,snow,etc.),
thunder or fog.

VAZ042-051-052>054-056-230500-
NORTHERN VIRGINIA

CITY           SKY/WX    TMP DP  RH WIND       PRES   REMARKS
WASH NATIONAL  MOCLDY    55  42  61 NW18G28   29.93F
DULLES         MOCLDY    50  42  74 NW15G22   29.96F
FORT BELVOIR   CLOUDY    53  43  68 NW15G25   29.94F
QUANTICO       MOCLDY    53  42  66 N15G29    29.96S
FREDERICKSBRG* PTCLDY    53  43  69 NW12G18   29.95F
STAFFORD*      PTCLDY    51  41  69 NW12G20   30.00S
WARRENTON      CLEAR     53  47  81 NW12G22   29.97F
CULPEPER*      CLEAR     54  43  66 NW10G21   29.98F
MANASSAS*      MOCLDY    52  45  76 NW12G20   29.97S
LEESBURG*      CLOUDY    52  45  76 N17G25    29.98S
WINCHESTER     PTCLDY    52  37  58 NW16      30.00F
FRONT ROYAL*   CLOUDY    50  41  71 NW6G18    30.02S
LURAY*         MOCLDY    52  43  71 NW9       30.03F
$$

VAZ048-049-060>072-079>083-230500-
CENTRAL AND SOUTH CENTRAL VIRGINIA...AND NORTH CENTRAL NORTH CAROLINA

CITY           SKY/WX    TMP DP  RH WIND       PRES   REMARKS
RICHMOND       CLOUDY    54  42  64 NW14G23   29.95F
CHESTERFIELD*  MOCLDY   N/A N/A N/A NW7       29.98S
PETERSBURG*    MOCLDY    50  44  79 NW6       29.98F
HANOVER        MOCLDY    52  42  69 NW12G21   29.97F
TAPPAHANNOCK*  CLOUDY    54  42  64 NW12G18   29.93F
CHARLOTTSVILLE CLEAR     53  39  59 NW7       29.99F
ORANGE*        CLEAR     52  43  71 W10       29.98F
LOUISA*        CLEAR     46  43  87 W3        29.96F
FARMVILLE*     CLEAR     52  41  66 NW3       29.99S
CREWE*         FAIR      47  42  82 CALM      29.99S
FORT PICKETT*  FAIR      46  43  89 NW6       29.99S
LUNENBURG*     FAIR      49  44  82 NW6       29.99S
SOUTH HILL*    FAIR      54  45  71 NW5       30.04S
LAWRENCEVILLE* FAIR      47  44  91 CALM      29.98S
ROANOKE RAPIDS FAIR      50  45  81 NW6       29.99R
RALEIGH        CLEAR     52  40  63 NW5       30.02F
$$

VAZ088>098-230500-
SOUTHEAST VIRGINIA

CITY           SKY/WX    TMP DP  RH WIND       PRES   REMARKS
NORFOLK        CLOUDY    56  46  69 NW10G18   29.89F
VIRGINIA BEACH CLOUDY    57  49  74 NW21G29   29.87F
NORFOLK NAVAL  MOCLDY    57  46  66 NW18G25   29.91F
WEST POINT*    MOCLDY    56  44  64 NW8G20    29.93S
NEWPORT NEWS   CLOUDY    57  46  66 NW16      29.91F
LANGLEY AFB    CLOUDY    55  47  74 NW18G25   29.90F
FORT EUSTIS    CLOUDY    55  45  68 NW16G26   29.90F
WILLIAMSBURG*  CLEAR     55  46  71 NW14G20   29.92F
HR EXEC AP*    CLOUDY    54  45  71 NW7       29.93F
FRANKLIN*      MOCLDY    54  46  76 NW8       29.94F
WAKEFIELD      CLOUDY    54  44  69 MISG      29.94F
$$

VAZ020-022-025-037-045-230500-
WEST CENTRAL AND SOUTHWEST VIRGINIA

CITY           SKY/WX    TMP DP  RH WIND       PRES   REMARKS
STAUNTON*      CLOUDY    50  40  68 CALM      30.07S
HOT SPRINGS VA CLOUDY    39  37  91 NW16G22   30.04F
LYNCHBURG      CLEAR     51  39  63 NW8       30.03F
DANVILLE       CLEAR     52  40  63 NW7       30.03F
SOUTH BOSTON*  NOT AVBL
MARTINSVILLE   CLEAR     46  41  81 NW10      30.08F
ROANOKE        PTCLDY    51  38  60 N12       30.11S
BLACKSBURG     CLOUDY    46  43  87 NW10      30.14S
DUBLIN*        CLOUDY    48  42  80 NW14G21   30.14F
MARION*        CLOUDY    46  39  75 W5        30.17F
HILLSVILLE*    CLOUDY    44  38  79 N21G33    30.10F
RICHLANDS*     DRIZZLE   45  43  94 NW6       30.18F
WISE*          CLOUDY    43  43 100 N5        30.21S
ABINGDON*      CLOUDY    47  42  83 CALM      30.19S
$$

MDZ021>025-VAZ099-100-230500-
SOUTHERN MARYLAND AND THE DELMARVA PENINSULA

CITY           SKY/WX    TMP DP  RH WIND       PRES   REMARKS
PATUXENT RIVER CLOUDY    54  47  77 NW15G24   29.87F
BAY BRIDGE APT   N/A     54  45  71 NW16G24   29.87F
LEONARDTOWN    CLOUDY    52  45  76 NW10G26   29.90F
DOVER          MOCLDY    52  49  92 NW18G26   29.77F
GEORGETOWN     CLOUDY    53  47  79 NW10G18   29.80F
EASTON         MOCLDY    55  48  77 N13G24    29.88F
CAMBRIDGE      CLOUDY    55  46  71 NW14G23   29.84F VSB<1/4
SALISBURY      CLOUDY    56  47  71 NW15G28   29.81F
OCEAN CITY     CLOUDY    53  48  83 NW15G26   29.78F
WALLOPS ISLAND CLOUDY    56  47  71 N14G25    29.82S
ACCOMACK*      CLOUDY    55  46  71 NW15G29   29.84S
$$

NCZ012>017-030>032-230500-
EASTERN NORTH CAROLINA

CITY           SKY/WX    TMP DP  RH WIND       PRES   REMARKS
ELIZABETH CITY CLOUDY    57  47  69 NW14G29   29.91F
AHOSKIE*       CLOUDY    54  45  73 NW3       29.97S
EDENTON*       CLOUDY    56  48  74 NW13      29.94S
CURRITUCK*     CLOUDY    55  47  75 W9G18     29.91S
KILL DEVIL HLS CLOUDY    56  50  79 NW13G20   29.87F
MANTEO         CLOUDY    56  49  78 NW16G26   29.89F
CAPE HATTERAS  CLOUDY    57  50  77 NW15G28   29.91R
TARBORO*       PTCLDY    52  46  79 W3        30.00S
GOLDSBORO      CLEAR     52  50  94 W8        29.99S
WASHINGTON     PTCLDY    53  46  77 NW6       29.98R
GREENVILLE     CLEAR     54  46  76 NW5       30.00S
NEW BERN       CLEAR     56  47  71 W6        29.99R
WILMINGTON     CLEAR     55  44  66 NW10      30.02S
$$

VAZ048-230500-
ELSEWHERE

CITY           SKY/WX    TMP DP  RH WIND       PRES   REMARKS
HARRISBURG PA  MOCLDY    52  42  69 NW20G29   29.92F
BALTIMORE      MOCLDY    53  43  68 NW15G24   29.89F
ANNAPOLIS      CLOUDY    56  46  69 NW15G23   29.87F
ANDREWS AFB    CLOUDY    52  44  73 NW17G26   29.91F
WILMINGTON DE  CLOUDY    53  47  79 NW20G25   29.82F
PHILADELPHIA   RAIN      53  47  79 NW17      29.79F
WILDWOOD NJ*   CLOUDY    54  46  76 NW13G24   29.76F
ATLANTIC CITY  LGT RAIN  51  50  96 NW20      29.72F
HENDERSON NC   CLEAR     51  40  67 W6        30.01F
GREENSBORO     CLEAR     45  38  76 CALM      30.06S
ROCKY MOUNT    CLEAR     53  45  74 NW7       30.00S
FAYETTEVILLE   CLEAR     54  41  61 NW9       30.04S
CHARLOTTE      CLEAR     47  37  68 NW5       30.11S
$$

VAZ100-230500-
MARINE

STATION/POSITION TIME  TEMP    WIND        PRES    WAVE   SWELL
                       AIR SEA DIR/SP/G            HT/PER HT/PER
                 (UTC) (F)     (DEG/KT/KT) (MB)    (FT/S) (FT/S)
44066 TX TWR #4  0400   62      30/ 25       N/A
CAPE MAY NJ      0400   55 66  330/ 13/ 28 1007.0F
LEWES DE         0400   55 62  320/ 27/ 32 1007.8F
15NM E FENWICK I 0400   58 65  320/ 31/ 39 1005.7F  11/ 8
OCEAN-CITY-INLET 0400   54 64  340/ 17/ 24 1007.8F
WACHAPREAGUE VA  0400   56 62  320/  9/ 18 1010.2S
THOMAS POINT MD  0400   54 62  320/ 18/ 22 1012.3F
GOOSES REEF MD   0400   56     340/ 23/ 29 1011.8F
COVE POINT MD    0400   56     340/ 25/ 30 1011.1F
SOLOMONS ISLAND  0400      64                N/A
BISHOPS HEAD MD  0400   55 58  330/ 14/ 23 1010.3F
PINEY POINT MD   0400          340/ 26/ 29   N/A
POTOMAC MD       0400   56     330/ 19/ 25 1011.0F
CAMBRIDGE MD     0400   55 61  320/ 17/ 23 1010.5F
LEWISETTA VA     0400   56 61  330/ 18/ 25 1011.9S
RAPPAHANNOCK LGT 0400          320/ 31/ 37 1011.2S
STINGRAY PT      0400   56     320/ 19/ 23 1012.3S
YORK RVR RNG VA  0400   56     330/ 22/ 26 1011.5F
YORKTOWN VA      0400   57 66  320/ 25/ 28 1012.1S
JAMESTOWN VA     0400   55     340/ 16/ 21   N/A
DOMINION TERM VA 0400   57     340/ 20/ 25 1012.5F
KIPTOPEKE VA     0400      65  330/ 27/ 35   N/A
CHES BAY BRIDGE  0400   57 66  310/ 24/ 28 1011.4S
CHESAPEAKE LGHT  0300   58     330/ 32/ 38 1010.9R
WILLOUBY STN VA  0400   56     320/ 15/ 18 1011.0F
S CRANEY ISL VA  0400          300/ 15/ 24 1012.0F
CAPE HENRY BUOY  0400      68                N/A     8/ 5   2/11
1ST LANDING BUOY 0400   58     320/ 25/ 31 1011.3S
CAPE CHARLES BUO 0400      68                N/A     6/ 7   3/11
64NM E OF VA BCH 0400   61 69  330/ 27/ 33 1007.8S  10/ 8
DUCK PIER NC     0400   56 68  310/ 20/ 24 1011.0R
44100 DUCK FRF   0400      69                N/A     8/ 8   2/11
44056 DUCK FRF   0400                        N/A     6/ 7
OREGON INLET NC  0400   57 63  310/ 16/ 22 1011.5S
HATTERAS NC      0400   58 66  320/ 23/ 28 1013.2R
DIAMOND SHLS NC  0400   60     310/ 23/ 29 1012.1R   6/ 6   2/ 9
CAPE LOOKOUT NC  0300   59     320/ 14/ 17 1014.7S
$$




U.S. Dept. of Commerce
NOAA National Weather Service
1325 East West Highway
Silver Spring, MD 20910
E-mail: w-nws.webmaster@noaa.gov
Page last modified: May 16, 2007
NATIONAL WEATHER SERVICE: for Safety, for Work, for Fun - FOR LIFE